Location: Unnamed
(51.5169°N, 0.1311°W)
Time: 19:18:09
(UTC+01:00)

Tiros 1 - Pass Details

Date: 12 August 2024
Orbit: 623 x 655 km, 48.4° (Epoch: 16 September)

Event Time Altitude Azimuth Distance (km) Brightness Sun altitude
Rises 06:54:36 0° 241° (WSW) 2,972 9.9 9.9°
Reaches altitude 10° 06:57:00 10° 235° (SW) 2,064 9.2 10.2°
Maximum altitude 07:01:34 46° 163° (SSE) 878 8.1 10.9°
Drops below altitude 10° 07:06:07 10° 90° (E) 2,065 12.2 11.6°
Sets 07:08:32 0° 85° (E) 2,975 12.7 12.0°
